Terminal Aerodrome Forecast
Issued by NWS

Home | Current Version | Previous Version | Text Only | Print | Product List | Glossary Off
Versions: 1 2 3 4 5 6 7 8 9 10 11 12 13 14 15 16

000
FTUS43 KFGF 201600 AAC
TAFBJI
TAF AMD
KBJI 201618Z 2016/2112 35006KT P6SM BKN015
      TEMPO 2016/2018 SCT015
     FM202300 04008KT P6SM SCT015
     FM210900 12006KT P6SM SCT200=

USA.gov is the U.S. government's official web portal to all federal, state and local government web resources and services.